Hourly Data Report for August 11, 2021

KUGLUKTUK A
NUNAVUT
Current Station Operator: NAVCAN

67°49'00.000" N
115°08'38.000" W
22.60 m
2300903
71938
YCO

Download Data

Hourly Data (August 2021)
Hourly Data Report for August 11, 2021
TIME
LST
Temp Definition
°C
Dew Point Definition
°C
Rel Hum Definition
%
Precip. Amount Definition
mm

Wind Dir Definition
10's deg

Wind Spd Definition
km/h
Visibility Definition
km
Stn Press Definition
kPa
Hmdx Definition


Wind Chill Definition


Weather Definition


00:00 6.5 3.3 80   36 11 24.1 100.12     LegendNANA
01:00 6.0 3.3 83   15 3 24.1 100.15     LegendNANA
02:00 5.8 3.5 85   36 12 24.1 100.21     Mostly Cloudy
03:00 5.7 3.2 84   36 10 24.1 100.28     LegendNANA
04:00 4.7 3.1 90   2 9 24.1 100.33     LegendNANA
05:00 4.5 3.4 92   9 4 24.1 100.40     Mostly Cloudy
06:00 5.2 3.8 91   19 4 24.1 100.47     LegendNANA
07:00 6.1 3.5 83   9 4 24.1 100.51     LegendNANA
08:00 6.5 3.4 80   10 9 24.1 100.55     Cloudy
09:00 7.2 3.7 78   7 5 24.1 100.58     LegendNANA
10:00 8.1 3.8 74   12 6 24.1 100.62     LegendNANA
11:00 9.0 4.3 72   11 8 24.1 100.66     Cloudy
12:00 11.3 3.2 57   9 8 24.1 100.68     LegendNANA
13:00 10.3 3.8 64   6 16 24.1 100.71     LegendNANA
14:00 9.8 2.4 60   7 19 24.1 100.74     Cloudy
15:00 10.2 1.9 56   8 21 24.1 100.76     LegendNANA
16:00 10.5 2.4 57   8 24 24.1 100.79     LegendNANA
17:00 10.2 1.8 56   8 25 24.1 100.84     Mostly Cloudy
18:00 9.5 2.0 59   7 18 24.1 100.89     LegendNANA
19:00 9.2 2.5 63   8 14 24.1 100.92     LegendNANA
20:00 8.8 2.6 65   8 13 24.1 100.96     Mostly Cloudy
21:00 7.5 2.9 72   10 12 24.1 100.98     LegendNANA
22:00 5.7 2.8 81   9 9 24.1 101.01     LegendNANA
23:00 6.1 3.4 83   11 7 24.1 101.03     Mainly Clear

Notes on Data Quality.

Legend

  • E = Estimated
  • M = Missing
  • NA = Not Available*
  • [empty] = Indicates an unobserved value
Date modified: